Location: Bidwell Hollow
(37.7387°N, 90.1707°W)
Time: 02:32:16
(UTC+00:00)

Vanguard 3 - Pass Details

Date: 13 May 2026
Orbit: 507 x 3204 km, 33.3° (Epoch: 6 June)

Event Time Altitude Azimuth Distance (km) Brightness Sun altitude
Rises 00:58:35 0° 280° (W) 6,960 13.9 -0.4°
Reaches altitude 10° 01:03:46 10° 277° (W) 5,704 13.1 -1.3°
Maximum altitude 01:19:18 55° 206° (SSW) 2,371 9.5 -4.1°
Drops below altitude 10° 01:28:29 10° 132° (SE) 3,499 9.8 -5.7°
Enters shadow 01:29:28 - 129° (SE) 3,765 9.9 -5.8°
Sets 01:30:55 0° 127° (SE) 4,185 - -6.1°
